This demonstration page uses our WeatherBlox Daily Observations layout. Learn more.

Left ArrowRight Arrow

Hourly Observations for March 22, 2016

Temp ( °F °C ) Dew Point ( °F °C ) Humidity (%) Winds ( mph kmh ) Pressure ( in mb ) Visibility ( mi km ) Precip ( " mm )
12:53 am 00:53 Clear 36 2.2 28 -2.2 73 73 N N/A 30.15 1021 10 16 N/A
1:53 am 01:53 Clear 34 1.1 28 -2.2 79 79 N N/A 30.15 1021 10 16 N/A
2:53 am 02:53 Clear 33 0.6 28 -2.2 82 82 N N/A 30.15 1021 10 16 N/A
3:53 am 03:53 Clear 33 0.6 27 -2.8 78 78 N N/A 30.14 1021 10 16 N/A
4:53 am 04:53 Mostly Cloudy 36 2.2 28 -2.2 73 73 E 3 6 30.14 1021 10 16 N/A
5:53 am 05:53 Clear 36 2.2 30 -1.1 79 79 E 6 9 30.12 1020 10 16 N/A
6:53 am 06:53 Clear 39 3.9 30 -1.1 70 70 SSE 5 7 30.11 1020 10 16 N/A
7:53 am 07:53 Sunny 39 3.9 30 -1.1 70 70 VRB 3 6 30.10 1019 10 16 N/A
8:53 am 08:53 Sunny 43 6.1 30 -1.1 60 60 VRB 5 7 30.10 1019 10 16 N/A
9:53 am 09:53 Sunny 49 9.4 29 -1.7 46 46 SSW 9 15 30.08 1019 10 16 N/A
10:53 am 10:53 Sunny 52 11.1 30 -1.1 43 43 SSW 12 19 30.07 1018 10 16 N/A
11:53 am 11:53 Sunny 56 13.3 30 -1.1 37 37 SSW 14 22 30.05 1018 10 16 N/A
12:53 pm 12:53 Sunny 60 15.6 31 -0.6 33 33 SW 13 20 30.02 1017 10 16 N/A
1:53 pm 13:53 Sunny 63 17.2 31 -0.6 30 30 SSW 9 15 29.98 1015 10 16 N/A
2:53 pm 14:53 Sunny 62 16.7 31 -0.6 31 31 SSW 15 24 29.94 1014 10 16 N/A
3:53 pm 15:53 Sunny 65 18.3 31 -0.6 28 28 SSW 16 26 29.91 1013 10 16 N/A
4:53 pm 16:53 Sunny 66 18.9 31 -0.6 27 27 SSW 15 24 29.87 1011 10 16 N/A
5:53 pm 17:53 Sunny 66 18.9 28 -2.2 24 24 SW 20 31 29.85 1011 10 16 N/A
6:53 pm 18:53 Sunny 65 18.3 27 -2.8 24 24 SSW 16 26 29.85 1011 10 16 N/A
7:53 pm 19:53 Clear 63 17.2 28 -2.2 27 27 SSW 10 17 29.85 1011 10 16 N/A
8:53 pm 20:53 Clear 63 17.2 27 -2.8 26 26 SSW 12 19 29.85 1011 10 16 N/A
9:53 pm 21:53 Clear 63 17.2 27 -2.8 26 26 SSW 12 19 29.85 1011 10 16 N/A
10:53 pm 22:53 Clear 61 16.1 28 -2.2 29 29 SSW 12 19 29.86 1011 10 16 N/A
11:53 pm 23:53 Clear 61 16.1 29 -1.7 30 30 SW 10 17 29.87 1012 10 16 N/A

Powered by AerisWeather